Zurück zum Katalog

OPS 4682 DEB

AktivPO
NORAD 38388·DEBRIS·🇺🇸 United States

Gestartet Apr 3, 1965 von Vandenberg Space Force Base

Loading…

Nächste Überflüge (nächste 24 Stunden)

TLE

AlterndSource: Space-Track

Epoche: Sep 9, 2026, 08:31 UTC

1 38388U 65027CR  26252.35518587  .00001690  00000-0  55233-2 0  9995
2 38388  90.2751  25.1431 0038111 130.0519 230.3956 13.00637437675005

Verfolge OPS 4682 DEB in Echtzeit mit AllMySat

Download on the App Store